Location: ?nandapuram
(16.5396°N, 81.1430°E)
Time: 22:31:02
(UTC+00:00)

DELTA 2 R/B (1) - Pass Details

Date: 14 April 2026
Orbit: 787 x 799 km, 39.6° (Epoch: 9 May)

Event Time Altitude Azimuth Distance (km) Brightness Sun altitude
Exits shadow 23:21:54 22° 252° (WSW) 1,673 4.6 -14.5°
Maximum altitude 23:25:24 56° 323° (NW) 924 3.8 -13.7°
Drops below altitude 10° 23:30:49 10° 42° (NE) 2,341 6.9 -12.5°
Sets 23:33:21 0° 46° (NE) 3,272 7.9 -11.9°
